Date String (YYYY-MM-DD hh:mm:ss) UTC,Instrument flags,Ambient pressure (hPa),Sample flow (lpm),Bypass flow (lpm),Sample temperature (°C),Ambient temperature (°C),ASC tube jacket temperature (°C),LED temperature (°C),Box temperature (°C),Sample RH (%),Span deviation,Mass concentration (μg/m³),Mass concentration (μg/m³),Mass concentration (μg/m³)
DateTimeUTC,F1_M11,P_M11,Q1_M11,Q2_M11,T1_M11,T2_M11,T3_M11,T4_M11,T5_M11,U1_M11,ZSPAN_M11,X0_M11,X2_M11,X1_M11
2021-11-22 11:00:00,,0832.0,4.99,0.00,23.8,22.9,00.0,32.9,25.5,11.4,0000.0,0017.98,0005.43,0004.26
2021-11-22 11:01:00,,0831.9,5.00,0.00,23.8,22.9,00.0,32.9,25.5,11.6,0000.0,0016.95,0005.43,0004.29
2021-11-22 11:02:00,,0832.0,5.00,0.00,23.8,22.9,00.0,32.9,25.5,11.9,0000.0,0016.23,0005.44,0004.34
2021-11-22 11:03:00,,0831.9,5.00,0.00,23.8,22.9,00.0,32.9,25.6,12.0,0000.0,0015.35,0005.47,0004.39
2021-11-22 11:04:00,,0832.0,5.00,0.00,23.8,22.9,00.0,32.9,25.5,12.1,0000.0,0015.16,0005.48,0004.42
2021-11-22 11:05:00,,0831.9,5.01,0.00,23.8,22.9,00.0,32.8,25.5,12.2,0000.0,0015.76,0005.48,0004.45
2021-11-22 11:06:00,,0831.8,4.99,0.00,23.8,22.9,00.0,32.8,25.5,12.2,0000.0,0015.55,0005.40,0004.49
2021-11-22 11:07:00,,0831.9,5.01,0.00,23.8,22.9,00.0,32.8,25.5,12.2,0000.0,0013.83,0005.35,0004.54
2021-11-22 11:08:00,,0831.9,5.01,0.00,23.8,22.9,00.0,32.8,25.5,12.0,0000.0,0011.91,0005.30,0004.57
2021-11-22 11:09:00,,0831.9,5.00,0.00,23.8,22.9,00.0,32.8,25.5,12.2,0000.0,0011.36,0005.25,0004.60
2021-11-22 11:10:00,,0831.9,5.00,0.00,23.8,22.9,00.0,32.8,25.5,12.4,0000.0,0011.37,0005.20,0004.63
2021-11-22 11:11:00,,0831.9,5.01,0.00,23.8,22.9,00.0,32.8,25.5,12.3,0000.0,0011.44,0005.22,0004.65
2021-11-22 11:12:00,,0832.0,5.00,0.00,23.8,22.9,00.0,32.8,25.5,12.4,0000.0,0011.80,0005.24,0004.68
2021-11-22 11:13:00,,0832.0,5.01,0.00,23.8,22.9,00.0,32.8,25.5,12.3,0000.0,0011.21,0005.22,0004.68
2021-11-22 11:14:00,,0832.0,5.00,0.00,23.8,22.9,00.0,32.8,25.5,12.4,0000.0,0011.09,0005.18,0004.66
2021-11-22 11:15:00,,0832.0,4.99,0.00,23.8,22.9,00.0,32.8,25.5,12.5,0000.0,0010.83,0005.18,0004.66
2021-11-22 11:16:00,,0832.0,5.01,0.00,23.8,22.9,00.0,32.8,25.5,12.5,0000.0,0009.95,0005.18,0004.66
2021-11-22 11:17:00,,0832.0,4.98,0.00,23.7,22.9,00.0,32.8,25.5,12.6,0000.0,0009.52,0005.17,0004.65
2021-11-22 11:18:00,,0832.0,5.01,0.00,23.7,22.9,00.0,32.8,25.5,12.6,0000.0,0009.46,0005.12,0004.64
2021-11-22 11:19:00,,0831.9,5.00,0.00,23.7,22.9,00.0,32.8,25.4,12.6,0000.0,0009.48,0005.12,0004.65
2021-11-22 11:20:00,,0831.9,5.00,0.00,23.7,22.8,00.0,32.8,25.5,12.7,0000.0,0009.54,0005.12,0004.65
2021-11-22 11:21:00,,0832.0,5.00,0.00,23.7,22.8,00.0,32.8,25.5,12.7,0000.0,0009.32,0005.12,0004.64
2021-11-22 11:22:00,,0831.9,5.00,0.00,23.7,22.8,00.0,32.8,25.5,12.7,0000.0,0008.75,0005.07,0004.63
2021-11-22 11:23:00,,0831.7,5.00,0.00,23.7,22.8,00.0,32.7,25.5,12.7,0000.0,0008.31,0005.03,0004.62
2021-11-22 11:24:00,,0831.7,4.99,0.00,23.7,22.8,00.0,32.7,25.5,12.6,0000.0,0009.16,0005.05,0004.63
2021-11-22 11:25:00,,0831.7,5.00,0.00,23.7,22.8,00.0,32.7,25.5,12.6,0000.0,0009.26,0005.07,0004.64
2021-11-22 11:26:00,,0831.7,4.99,0.00,23.7,22.8,00.0,32.7,25.5,12.6,0000.0,0009.15,0005.06,0004.65
2021-11-22 11:27:00,,0831.8,5.01,0.00,23.7,22.8,00.0,32.7,25.5,12.6,0000.0,0009.04,0005.04,0004.66
2021-11-22 11:28:00,,0831.7,4.99,0.00,23.7,22.8,00.0,32.7,25.4,12.5,0000.0,0008.96,0005.02,0004.66
2021-11-22 11:29:00,,0831.7,5.01,0.00,23.7,22.8,00.0,32.7,25.4,12.5,0000.0,0009.39,0005.01,0004.66
2021-11-22 11:30:00,,0831.7,4.99,0.00,23.7,22.8,00.0,32.7,25.4,12.5,0000.0,0009.32,0004.98,0004.65
2021-11-22 11:31:00,,0831.7,5.00,0.00,23.7,22.8,00.0,32.7,25.4,12.4,0000.0,0009.69,0004.98,0004.65
2021-11-22 11:32:00,,0831.7,4.99,0.00,23.6,22.8,00.0,32.7,25.4,12.5,0000.0,0010.20,0004.99,0004.66
2021-11-22 11:33:00,,0831.7,5.00,0.00,23.6,22.8,00.0,32.7,25.4,12.5,0000.0,0010.27,0005.00,0004.66
2021-11-22 11:34:00,,0831.7,5.00,0.00,23.6,22.8,00.0,32.7,25.3,12.4,0000.0,0010.46,0005.05,0004.67
2021-11-22 11:35:00,,0831.7,5.00,0.00,23.6,22.8,00.0,32.7,25.3,12.5,0000.0,0009.94,0005.07,0004.66
2021-11-22 11:36:00,,0831.8,4.99,0.00,23.6,22.7,00.0,32.7,25.3,12.5,0000.0,0009.61,0005.05,0004.64
2021-11-22 11:37:00,,0831.7,5.01,0.00,23.6,22.8,00.0,32.7,25.4,12.5,0000.0,0009.92,0005.01,0004.62
2021-11-22 11:38:00,,0831.7,4.98,0.00,23.6,22.7,00.0,32.7,25.3,12.5,0000.0,0009.83,0004.97,0004.60
2021-11-22 11:39:00,,0831.7,5.00,0.00,23.6,22.7,00.0,32.6,25.4,12.6,0000.0,0009.77,0004.93,0004.58
2021-11-22 11:40:00,,0831.7,4.99,0.00,23.6,22.7,00.0,32.6,25.4,12.7,0000.0,0009.35,0004.91,0004.56
2021-11-22 11:41:00,,0831.7,5.01,0.00,23.6,22.7,00.0,32.6,25.4,12.6,0000.0,0010.26,0004.93,0004.54
2021-11-22 11:42:00,,0831.7,4.98,0.00,23.6,22.8,00.0,32.6,25.4,12.6,0000.0,0010.28,0004.92,0004.52
2021-11-22 11:43:00,,0831.8,5.00,0.00,23.6,22.8,00.0,32.6,25.3,12.6,0000.0,0009.97,0004.89,0004.50
2021-11-22 11:44:00,,0831.7,5.01,0.00,23.6,22.7,00.0,32.6,25.3,12.6,0000.0,0009.94,0004.87,0004.48
2021-11-22 11:45:00,,0831.9,4.99,0.00,23.6,22.7,00.0,32.6,25.3,12.6,0000.0,0009.87,0004.83,0004.45
2021-11-22 11:46:00,,0831.8,5.01,0.00,23.6,22.7,00.0,32.6,25.3,12.5,0000.0,0009.68,0004.75,0004.43
2021-11-22 11:47:00,,0831.8,4.99,0.00,23.6,22.7,00.0,32.6,25.3,12.5,0000.0,0009.52,0004.70,0004.42
2021-11-22 11:48:00,,0831.8,5.01,0.00,23.6,22.7,00.0,32.6,25.3,12.5,0000.0,0009.13,0004.68,0004.41
2021-11-22 11:49:00,,0831.8,4.99,0.00,23.6,22.7,00.0,32.6,25.2,12.5,0000.0,0009.21,0004.68,0004.40
2021-11-22 11:50:00,,0831.8,5.00,0.00,23.6,22.7,00.0,32.6,25.3,12.5,0000.0,0009.25,0004.68,0004.41
2021-11-22 11:51:00,,0831.7,5.01,0.00,23.6,22.7,00.0,32.6,25.3,12.5,0000.0,0009.40,0004.71,0004.41
2021-11-22 11:52:00,,0831.8,4.99,0.00,23.6,22.7,00.0,32.6,25.3,12.5,0000.0,0008.76,0004.71,0004.41
2021-11-22 11:53:00,,0831.8,5.02,0.00,23.6,22.6,00.0,32.6,25.3,12.3,0000.0,0008.35,0004.68,0004.41
2021-11-22 11:54:00,,0831.9,4.98,0.00,23.6,22.7,00.0,32.6,25.3,11.9,0000.0,0008.04,0004.64,0004.38
2021-11-22 11:55:00,,0831.9,5.00,0.00,23.5,22.6,00.0,32.6,25.3,11.8,0000.0,0008.49,0004.59,0004.34
2021-11-22 11:56:00,,0831.9,5.01,0.00,23.5,22.6,00.0,32.6,25.2,11.6,0000.0,0008.75,0004.52,0004.28
2021-11-22 11:57:00,,0831.9,5.00,0.00,23.5,22.6,00.0,32.6,25.2,11.5,0000.0,0008.98,0004.51,0004.23
2021-11-22 11:58:00,,0831.9,4.99,0.00,23.5,22.6,00.0,32.6,25.2,11.6,0000.0,0009.84,0004.48,0004.18
2021-11-22 11:59:00,,0831.8,4.99,0.00,23.5,22.6,00.0,32.6,25.2,11.7,0000.0,0009.71,0004.47,0004.15
